Weather History for KMCD - November, 2012

Change the Weather History Date:

Monday, November 19, 2012

  Actual Average Record
Temperature  
Mean Temperature 40 °F -  
Max Temperature 47 °F 39 °F 57 °F (1985)
Min Temperature 34 °F 30 °F 14 °F (1992)
Degree Days  
Heating Degree Days 24    
Moisture  
Dew Point 35 °F    
Average Humidity 74    
Maximum Humidity 87    
Minimum Humidity 60    
Precipitation  
Precipitation 0.00 in - - ()
Sea Level Pressure  
Sea Level Pressure 30.24 in    
Wind  
Wind Speed 8 mph (SE)    
Max Wind Speed 13 mph    
Max Gust Speed 20 mph    
Visibility 10 miles    
Events      
Averages and records for this station are not official NWS values.
T = Trace of Precipitation, MM = Missing Value Source: NWS Daily Summary

Daily Weather History Graph

Daily Weather History Graph

Search for Another Location

Airport or City:

Trip Planner

Search our weather history database for the weather conditions in past years. The results will help you decide how hot, cold, wet, or windy it might be!

Date:

Astronomy

Nov. 19, 2012 Rise Set
Actual Time 7:44 AM EST 5:02 PM EST
Civil Twilight 7:12 AM EST 5:35 PM EST
Nautical Twilight 6:35 AM EST 6:12 PM EST
Astronomical Twilight 6:00 AM EST 6:47 PM EST
Moon 12:40 PM EST (11/19) 11:37 PM EST (11/19)
Length of Visible Light 10h 23m
Length of Day
9h 18m
Waxing Crescent, 40% of the Moon is Illuminated
Nov 19
Waxing Crescent
Nov 20
First Quarter
Nov 28
Full
Dec 6
Last Quarter
Dec 13
New

Hourly Weather History & Observations

Time (EST) Temp. Windchill Dew Point Humidity Pressure Visibility Wind Dir Wind Speed Gust Speed Precip Events Conditions
12:13 AM 41.9 °F 35.9 °F 32.2 °F 68% 30.36 in 10.0 mi SSE 10.4 mph 19.6 mph N/A   Scattered Clouds
12:33 AM 41.5 °F 35.9 °F 32.5 °F 70% 30.35 in 10.0 mi SSE 9.2 mph 18.4 mph N/A   Clear
12:53 AM 41.0 °F 34.7 °F 32.9 °F 73% 30.35 in 10.0 mi SSE 10.4 mph 16.1 mph N/A   Clear
1:13 AM 40.5 °F 34.6 °F 33.1 °F 75% 30.35 in 10.0 mi SSE 9.2 mph - N/A   Clear
1:33 AM 40.6 °F 34.3 °F 33.8 °F 77% 30.34 in 10.0 mi SSE 10.4 mph - N/A   Clear
1:53 AM 40.3 °F 33.9 °F 33.8 °F 78% 30.33 in 10.0 mi SSE 10.4 mph - N/A   Clear
2:13 AM 40.3 °F 33.4 °F 34.2 °F 79% 30.33 in 10.0 mi SSE 11.5 mph - N/A   Clear
2:33 AM 41.0 °F 33.9 °F 34.5 °F 78% 30.33 in 10.0 mi SSE 12.7 mph 17.3 mph N/A   Clear
2:53 AM 41.0 °F 34.3 °F 34.7 °F 78% 30.34 in 10.0 mi South 11.5 mph - N/A   Clear
3:33 AM 40.6 °F 33.8 °F 34.7 °F 79% 30.33 in 10.0 mi South 11.5 mph 17.3 mph N/A   Clear
3:53 AM 40.3 °F 33.9 °F 34.7 °F 80% 30.33 in 10.0 mi SSE 10.4 mph - N/A   Scattered Clouds
4:13 AM 40.1 °F 33.6 °F 34.7 °F 81% 30.32 in 10.0 mi South 10.4 mph - N/A   Scattered Clouds
4:53 AM 40.1 °F 36.1 °F 34.9 °F 82% 30.32 in 10.0 mi SSE 5.8 mph - N/A   Clear
5:13 AM 39.7 °F 34.3 °F 34.7 °F 82% 30.33 in 10.0 mi SSE 8.1 mph - N/A   Clear
5:33 AM 39.2 °F 34.2 °F 34.3 °F 83% 30.32 in 10.0 mi SSE 6.9 mph - N/A   Clear
5:53 AM 39.2 °F 33.6 °F 33.8 °F 81% 30.32 in 10.0 mi SSE 8.1 mph - N/A   Clear
6:13 AM 38.8 °F 33.8 °F 33.3 °F 80% 30.32 in 10.0 mi SSE 6.9 mph - N/A   Clear
6:36 AM 38.5 °F 32.7 °F 32.5 °F 79% 30.31 in 10.0 mi SSE 8.1 mph - N/A   Clear
6:56 AM 37.4 °F 33.8 °F 32.0 °F 81% 30.31 in 10.0 mi SSE 4.6 mph - N/A   Clear
7:16 AM 36.3 °F 30.1 °F 32.2 °F 85% 30.30 in 10.0 mi SE 8.1 mph - N/A   Clear
7:36 AM 34.7 °F 28.8 °F 31.1 °F 87% 30.31 in 7.0 mi SE 6.9 mph - N/A   Clear
7:56 AM 35.8 °F 30.9 °F 31.5 °F 84% 30.30 in 7.0 mi ESE 5.8 mph - N/A   Clear
8:36 AM 38.5 °F 31.1 °F 32.9 °F 80% 30.30 in 10.0 mi SSE 11.5 mph - N/A   Clear
8:56 AM 38.5 °F 31.6 °F 33.3 °F 81% 30.30 in 7.0 mi SSE 10.4 mph - N/A   Clear
9:16 AM 38.5 °F 31.6 °F 33.3 °F 81% 30.29 in 7.0 mi SSE 10.4 mph - N/A   Clear
9:36 AM 40.1 °F 33.2 °F 33.1 °F 76% 30.29 in 10.0 mi SSE 11.5 mph - N/A   Clear
9:56 AM 41.2 °F 35.5 °F 32.9 °F 72% 30.28 in 10.0 mi SSE 9.2 mph - N/A   Clear
10:16 AM 42.4 °F 37.5 °F 32.0 °F 67% 30.28 in 10.0 mi SSE 8.1 mph - N/A   Clear
10:36 AM 42.8 °F 38.6 °F 32.0 °F 66% 30.28 in 10.0 mi South 6.9 mph - N/A   Clear
10:55 AM 42.3 °F 37.9 °F 32.5 °F 68% 30.27 in 10.0 mi South 6.9 mph - N/A   Clear
11:16 AM 42.8 °F 40.1 °F 32.2 °F 66% 30.27 in 10.0 mi SSE 4.6 mph - N/A   Clear
11:36 AM 43.7 °F - 32.2 °F 64% 30.26 in 10.0 mi Calm Calm - N/A   Clear
11:55 AM 44.6 °F 43.1 °F 33.8 °F 66% 30.25 in 10.0 mi ENE 3.5 mph - N/A   Clear
12:16 PM 44.1 °F - 34.9 °F 70% 30.24 in 10.0 mi Calm Calm - N/A   Clear
12:36 PM 43.7 °F 41.1 °F 35.4 °F 73% 30.24 in 10.0 mi East 4.6 mph - N/A   Clear
12:55 PM 43.3 °F 41.7 °F 35.8 °F 75% 30.23 in 10.0 mi East 3.5 mph - N/A   Clear
1:16 PM 43.5 °F 40.9 °F 36.7 °F 77% 30.22 in 10.0 mi East 4.6 mph - N/A   Scattered Clouds
1:36 PM 43.7 °F 40.3 °F 37.2 °F 78% 30.22 in 10.0 mi East 5.8 mph - N/A   Mostly Cloudy
1:55 PM 43.9 °F 40.5 °F 37.4 °F 78% 30.22 in 10.0 mi East 5.8 mph - N/A   Overcast
2:16 PM 43.9 °F 40.5 °F 37.8 °F 79% 30.22 in 10.0 mi East 5.8 mph - N/A   Overcast
2:36 PM 44.1 °F 39.0 °F 37.8 °F 78% 30.21 in 10.0 mi East 9.2 mph - N/A   Overcast
2:55 PM 44.2 °F 41.0 °F 37.9 °F 79% 30.20 in 10.0 mi East 5.8 mph - N/A   Overcast
3:16 PM 44.6 °F 40.7 °F 39.0 °F 81% 30.20 in 10.0 mi East 6.9 mph - N/A   Overcast
3:36 PM 44.6 °F 40.7 °F 39.4 °F 82% 30.19 in 10.0 mi East 6.9 mph - N/A   Overcast
3:55 PM 44.8 °F 41.0 °F 39.2 °F 81% 30.19 in 10.0 mi East 6.9 mph - N/A   Overcast
4:16 PM 44.8 °F 42.4 °F 39.7 °F 82% 30.19 in 10.0 mi ESE 4.6 mph - N/A   Overcast
4:36 PM 44.8 °F 41.6 °F 39.9 °F 83% 30.18 in 10.0 mi ESE 5.8 mph - N/A   Mostly Cloudy
4:55 PM 45.0 °F 41.8 °F 39.7 °F 82% 30.18 in 10.0 mi ESE 5.8 mph - N/A   Mostly Cloudy
5:16 PM 44.8 °F 41.6 °F 39.9 °F 83% 30.17 in 10.0 mi ESE 5.8 mph - N/A   Mostly Cloudy
5:56 PM 46.4 °F 43.5 °F 36.9 °F 69% 30.17 in 10.0 mi SE 5.8 mph - N/A   Overcast
6:16 PM 47.1 °F - 36.7 °F 67% 30.17 in 10.0 mi SE 5.8 mph - N/A   Overcast
6:36 PM 46.8 °F - 36.9 °F 68% 30.16 in 10.0 mi SE 5.8 mph - N/A   Overcast
6:56 PM 44.8 °F - 39.7 °F 82% 30.16 in 10.0 mi Calm Calm - N/A   Overcast
7:16 PM 44.2 °F 40.3 °F 39.9 °F 85% 30.16 in 10.0 mi SE 6.9 mph - N/A   Overcast
7:36 PM 47.3 °F - 36.3 °F 66% 30.16 in 10.0 mi SE 3.5 mph - N/A   Overcast
7:56 PM 44.8 °F 43.3 °F 38.5 °F 79% 30.16 in 10.0 mi SSE 3.5 mph - N/A   Overcast
8:16 PM 45.1 °F 42.0 °F 37.2 °F 74% 30.15 in 10.0 mi SSE 5.8 mph - N/A   Overcast
8:56 PM 46.6 °F - 35.2 °F 65% 30.15 in 10.0 mi SE 4.6 mph - N/A   Overcast
9:16 PM 46.9 °F - 34.2 °F 61% 30.14 in 10.0 mi SSE 6.9 mph - N/A   Overcast
9:35 PM 46.6 °F - 34.7 °F 63% 30.14 in 10.0 mi SSE 6.9 mph - N/A   Scattered Clouds
9:56 PM 46.8 °F - 34.3 °F 62% 30.14 in 10.0 mi SSE 6.9 mph - N/A   Mostly Cloudy
10:16 PM 46.9 °F - 33.8 °F 60% 30.13 in 10.0 mi SSE 5.8 mph - N/A   Overcast
10:35 PM 46.8 °F - 33.6 °F 60% 30.13 in 10.0 mi SSE 5.8 mph - N/A   Mostly Cloudy
10:56 PM 46.8 °F - 33.4 °F 60% 30.12 in 10.0 mi SSE 4.6 mph - N/A   Mostly Cloudy
11:16 PM 46.4 °F 44.3 °F 33.3 °F 60% 30.12 in 10.0 mi South 4.6 mph - N/A   Overcast
11:36 PM 45.7 °F 42.7 °F 33.1 °F 61% 30.11 in 10.0 mi SSE 5.8 mph - N/A   Mostly Cloudy
11:56 PM 45.9 °F 42.3 °F 32.7 °F 60% 30.12 in 10.0 mi SSE 6.9 mph - N/A   Overcast